This demonstration page uses our WeatherBlox Daily Observations layout. Learn more.

Left ArrowRight Arrow

38.89511, -77.03637

Hourly Observations for May 27, 2018

Temp ( °F °C ) Dew Point ( °F °C ) Humidity (%) Winds ( mph kmh ) Pressure ( in mb ) Visibility ( mi km ) Precip ( " mm )
12:52 am 00:52 Cloudy 74 23.3 70 21.1 88 88 S 6 9 29.88 1012 10 16 0.00 0.03
1:52 am 01:52 Cloudy 74 23.3 70 21.1 88 88 S 6 9 29.88 1012 10 16 0.00 0.00
2:52 am 02:52 Mostly Cloudy 73 22.8 70 21.1 90 90 S 5 7 29.87 1012 10 16 0.00 0.00
2:59 am 02:59 Cloudy 73 22.8 70 21.1 90 90 SSW 5 7 29.88 1012 10 16 0.00 0.00
3:25 am 03:25 Cloudy 74 23.3 70 21.1 88 88 S 6 9 29.88 1012 10 16 0.00 0.00
3:52 am 03:52 Cloudy 74 23.3 70 21.1 88 88 S 7 11 29.87 1011 10 16 0.00 0.00
4:52 am 04:52 Cloudy 74 23.3 70 21.1 88 88 SSW 8 13 29.88 1012 10 16 0.00 0.00
5:13 am 05:13 Cloudy 74 23.3 70 21.1 88 88 SSW 7 11 29.88 1012 10 16 0.00 0.00
5:52 am 05:52 Cloudy 74 23.3 70 21.1 88 88 S 6 9 29.89 1012 10 16 0.00 0.00
6:10 am 06:10 Cloudy 74 23.3 70 21.1 88 88 S 6 9 29.88 1012 10 16 0.00 0.00
6:23 am 06:23 Cloudy 74 23.3 70 21.1 88 88 S 7 11 29.91 1013 10 16 0.00 0.00
6:52 am 06:52 Cloudy 75 23.9 71 21.7 88 88 SSW 7 11 29.91 1013 10 16 0.00 0.00
7:52 am 07:52 Cloudy 76 24.4 70 21.1 82 82 SSW 6 9 29.91 1013 10 16 0.00 0.00
8:04 am 08:04 Mostly Cloudy 77 25 71 21.7 82 82 SSW 5 7 29.91 1013 10 16 0.00 0.00
8:52 am 08:52 Mostly Cloudy 76 24.4 71 21.7 85 85 S 8 13 29.92 1013 10 16 0.00 0.00
9:52 am 09:52 Mostly Cloudy 78 25.6 71 21.7 79 79 SSW 7 11 29.93 1014 10 16 0.00 0.00
10:52 am 10:52 Mostly Cloudy 80 26.7 72 22.2 76 76 SSE 8 13 29.93 1014 10 16 0.00 0.00
11:52 am 11:52 Mostly Cloudy 81 27.2 72 22.2 74 74 S 12 19 29.94 1014 10 16 0.00 0.00
12:52 pm 12:52 Mostly Cloudy 84 28.9 73 22.8 70 70 S 8 13 29.93 1013 10 16 0.00 0.00
1:52 pm 13:52 Mostly Cloudy 84 28.9 72 22.2 67 67 S 10 17 29.91 1013 10 16 0.00 0.00
2:52 pm 14:52 Mostly Cloudy 82 27.8 70 21.1 67 67 S 8 13 29.90 1013 10 16 0.00 0.00
3:52 pm 15:52 Mostly Cloudy 83 28.3 68 20 61 61 SW 8 13 29.89 1012 10 16 0.00 0.00
4:52 pm 16:52 Mostly Cloudy with Light Rain 82 27.8 71 21.7 69 69 SW 10 17 29.91 1013 10 16 0.00 0.03
5:17 pm 17:17 Mostly Cloudy with Nearby Thunderstorms 81 27.2 71 21.7 72 72 SW 7 11 29.91 1013 10 16 0.00 0.03
5:30 pm 17:30 Mostly Cloudy with Thunderstorms 81 27.2 71 21.7 72 72 WSW 5 7 29.91 1013 10 16 0.00 0.03
5:52 pm 17:52 Mostly Cloudy with Thunderstorms 81 27.2 72 22.2 74 74 W 3 6 29.92 1013 10 16 0.00 0.03
6:28 pm 18:28 Cloudy with Thunderstorms 77 25 69 20.6 77 77 NE 13 20 29.91 1013 10 16 0.00 0.03
6:30 pm 18:30 Cloudy with Nearby Thunderstorms 77 25 69 20.6 77 77 NE 16 26 29.94 1014 10 16 0.00 0.03
6:52 pm 18:52 Cloudy with Nearby Thunderstorms 76 24.4 68 20 77 77 NNE 13 20 29.94 1014 10 16 0.00 0.03
7:14 pm 19:14 Cloudy with Thunderstorms 75 23.9 67 19.4 76 76 NNE 8 13 29.97 1015 10 16 0.00 0.03
7:29 pm 19:29 Cloudy with Nearby Thunderstorms 75 23.9 67 19.4 76 76 NE 9 15 29.97 1015 10 16 0.00 0.03
7:31 pm 19:31 Cloudy with Light Rain 75 23.9 67 19.4 76 76 NE 8 13 29.97 1015 10 16 0.00 0.03
7:52 pm 19:52 Cloudy 74 23.3 68 20 82 82 ENE 13 20 29.97 1015 10 16 0.00 0.03
8:49 pm 20:49 Mostly Cloudy with Nearby Thunderstorms 73 23 68 20 83 83 E 6 9 29.97 1015 10 16 0.00 0.03
8:52 pm 20:52 Cloudy with Nearby Thunderstorms 74 23.3 68 20 82 82 E 7 11 29.98 1015 10 16 0.00 0.03
9:06 pm 21:06 Cloudy 74 23.3 68 20 82 82 E 8 13 29.97 1015 10 16 0.00 0.00
9:18 pm 21:18 Cloudy 73 22.8 68 20 84 84 E 7 11 29.97 1015 10 16 0.00 0.00
9:39 pm 21:39 Cloudy with Nearby Thunderstorms 73 22.8 69 20.6 87 87 NE 3 6 30.00 1016 10 16 0.00 0.00
9:48 pm 21:48 Mostly Cloudy 73 23 68 20 83 83 ENE 3 6 30.00 1016 10 16 0.00 0.00
9:52 pm 21:52 Mostly Cloudy 73 22.8 69 20.6 87 87 ENE 3 6 30.00 1016 10 16 0.00 0.00
10:52 pm 22:52 Cloudy 74 23.3 69 20.6 85 85 E 7 11 30.02 1017 10 16 0.00 0.00
11:28 pm 23:28 Cloudy with Nearby Thunderstorms 72 22.2 68 20 87 87 ENE 12 19 30.03 1017 10 16 0.00 0.00
11:42 pm 23:42 Cloudy with Light Rain 71 21.7 68 20 90 90 NE 12 19 30.03 1017 7 11 0.00 0.03
11:52 pm 23:52 Cloudy with Light Rain 71 21.7 68 20 90 90 NE 13 20 30.03 1017 6 10 0.00 0.03

Powered by AerisWeather